TimeEDT,TemperatureF,Dew PointF,Humidity,Sea Level PressureIn,VisibilityMPH,Wind Direction,Wind SpeedMPH,Gust SpeedMPH,PrecipitationIn,Events,Conditions,WindDirDegrees,DateUTC
12:52 AM,69.1,68.0,96,29.94,6.0,Calm,Calm,-,N/A,,Scattered Clouds,0,2013-07-19 04:52:00
1:12 AM,69.8,66.2,88,29.95,6.0,Calm,Calm,-,N/A,,Scattered Clouds,0,2013-07-19 05:12:00
1:43 AM,68.0,66.2,94,29.95,6.0,Calm,Calm,-,N/A,,Mostly Cloudy,0,2013-07-19 05:43:00
1:52 AM,68.0,66.9,96,29.93,6.0,Calm,Calm,-,N/A,,Overcast,0,2013-07-19 05:52:00
2:48 AM,68.0,66.2,94,29.93,5.0,Calm,Calm,-,N/A,,Overcast,0,2013-07-19 06:48:00
2:52 AM,66.9,66.0,97,29.92,6.0,Calm,Calm,-,0.01,,Overcast,0,2013-07-19 06:52:00
3:28 AM,68.0,66.2,94,29.92,2.5,Calm,Calm,-,N/A,,Overcast,0,2013-07-19 07:28:00
3:36 AM,68.0,66.2,94,29.91,5.0,Calm,Calm,-,N/A,,Overcast,0,2013-07-19 07:36:00
3:50 AM,66.2,66.2,100,29.91,5.0,Calm,Calm,-,N/A,,Mostly Cloudy,0,2013-07-19 07:50:00
3:52 AM,68.0,66.9,96,29.89,5.0,Calm,Calm,-,N/A,,Scattered Clouds,0,2013-07-19 07:52:00
4:06 AM,66.2,66.2,100,29.90,6.0,Calm,Calm,-,N/A,,Mostly Cloudy,0,2013-07-19 08:06:00
4:32 AM,66.2,66.2,100,29.89,1.8,Calm,Calm,-,N/A,,Overcast,0,2013-07-19 08:32:00
4:34 AM,66.2,66.2,100,29.89,0.8,Calm,Calm,-,N/A,,Mist,0,2013-07-19 08:34:00
4:45 AM,66.2,66.2,100,29.89,1.8,Calm,Calm,-,N/A,,Overcast,0,2013-07-19 08:45:00
4:50 AM,66.2,66.2,100,29.89,0.8,Calm,Calm,-,N/A,,Mist,0,2013-07-19 08:50:00
4:52 AM,66.9,66.9,100,29.87,0.5,Calm,Calm,-,N/A,Fog,Fog,0,2013-07-19 08:52:00
5:00 AM,66.2,66.2,100,29.89,0.2,Calm,Calm,-,N/A,Fog,Fog,0,2013-07-19 09:00:00
5:52 AM,66.9,66.0,97,29.88,0.2,Calm,Calm,-,N/A,Fog,Fog,0,2013-07-19 09:52:00
6:01 AM,66.2,66.2,100,29.89,1.0,Calm,Calm,-,N/A,,Overcast,0,2013-07-19 10:01:00
6:05 AM,66.2,66.2,100,29.89,2.0,Calm,Calm,-,N/A,,Overcast,0,2013-07-19 10:05:00
6:08 AM,66.2,66.2,100,29.89,1.2,Calm,Calm,-,N/A,,Overcast,0,2013-07-19 10:08:00
6:15 AM,66.2,66.2,100,29.89,0.2,Calm,Calm,-,N/A,Fog,Fog,0,2013-07-19 10:15:00
6:50 AM,68.0,68.0,100,29.89,0.5,Calm,Calm,-,N/A,Fog,Fog,0,2013-07-19 10:50:00
6:52 AM,68.0,68.0,100,29.88,0.5,Calm,Calm,-,N/A,Fog,Fog,0,2013-07-19 10:52:00
7:04 AM,68.0,68.0,100,29.88,1.5,Calm,Calm,-,N/A,,Overcast,0,2013-07-19 11:04:00
7:06 AM,68.0,68.0,100,29.88,3.0,Calm,Calm,-,N/A,,Overcast,0,2013-07-19 11:06:00
7:17 AM,68.0,68.0,100,29.88,1.8,Calm,Calm,-,N/A,,Overcast,0,2013-07-19 11:17:00
7:25 AM,69.8,68.0,94,29.87,1.0,Calm,Calm,-,N/A,,Overcast,0,2013-07-19 11:25:00
7:36 AM,69.8,68.0,94,29.87,2.0,Calm,Calm,-,N/A,,Mostly Cloudy,0,2013-07-19 11:36:00
7:46 AM,69.8,69.8,100,29.87,3.0,Calm,Calm,-,N/A,,Mostly Cloudy,0,2013-07-19 11:46:00
7:52 AM,69.1,69.1,100,29.85,4.0,Calm,Calm,-,N/A,,Scattered Clouds,0,2013-07-19 11:52:00
8:52 AM,73.0,71.1,93,29.84,6.0,Calm,Calm,-,N/A,,Clear,0,2013-07-19 12:52:00
9:52 AM,81.0,72.0,74,29.81,10.0,Variable,3.5,-,N/A,,Clear,0,2013-07-19 13:52:00
10:52 AM,82.0,71.1,69,29.79,10.0,WSW,5.8,-,N/A,,Clear,250,2013-07-19 14:52:00
11:52 AM,86.0,70.0,59,29.76,10.0,WSW,9.2,20.7,N/A,,Clear,240,2013-07-19 15:52:00
12:52 PM,84.9,70.0,61,29.74,10.0,Variable,5.8,17.3,N/A,,Clear,0,2013-07-19 16:52:00
1:52 PM,90.0,71.1,54,29.71,10.0,SW,11.5,19.6,N/A,,Partly Cloudy,230,2013-07-19 17:52:00
2:52 PM,90.0,71.1,54,29.68,10.0,SW,11.5,21.9,N/A,,Partly Cloudy,230,2013-07-19 18:52:00
3:52 PM,90.0,71.1,54,29.66,10.0,WSW,8.1,20.7,N/A,,Partly Cloudy,240,2013-07-19 19:52:00
4:52 PM,90.0,70.0,52,29.67,10.0,SW,8.1,20.7,N/A,,Clear,220,2013-07-19 20:52:00
5:52 PM,89.1,71.1,55,29.65,10.0,Variable,5.8,-,N/A,,Clear,0,2013-07-19 21:52:00
6:52 PM,88.0,70.0,55,29.65,10.0,SW,11.5,21.9,N/A,,Partly Cloudy,220,2013-07-19 22:52:00
7:52 PM,86.0,69.1,57,29.66,10.0,Variable,5.8,-,N/A,,Partly Cloudy,0,2013-07-19 23:52:00